TimeCDT,TemperatureF,Dew PointF,Humidity,Sea Level PressureIn,VisibilityMPH,Wind Direction,Wind SpeedMPH,Gust SpeedMPH,PrecipitationIn,Events,Conditions,WindDirDegrees,DateUTC
12:53 AM,54.0,41.0,62,29.76,10.0,NW,5.8,-,N/A,,Clear,320,2014-05-03 05:53:00
1:53 AM,51.1,41.0,68,29.77,10.0,Calm,Calm,-,N/A,,Clear,0,2014-05-03 06:53:00
2:53 AM,46.9,39.9,77,29.77,10.0,WSW,5.8,-,N/A,,Clear,240,2014-05-03 07:53:00
3:53 AM,50.0,39.0,66,29.79,10.0,West,4.6,-,N/A,,Clear,280,2014-05-03 08:53:00
4:53 AM,48.9,39.0,69,29.80,10.0,WNW,4.6,-,N/A,,Clear,290,2014-05-03 09:53:00
5:53 AM,48.0,37.9,68,29.82,10.0,WNW,4.6,-,N/A,,Clear,290,2014-05-03 10:53:00
6:53 AM,48.9,39.0,69,29.85,10.0,West,6.9,-,N/A,,Clear,280,2014-05-03 11:53:00
7:53 AM,53.1,39.9,61,29.87,10.0,WNW,9.2,-,N/A,,Clear,300,2014-05-03 12:53:00
8:53 AM,57.0,39.0,51,29.88,10.0,WNW,8.1,-,N/A,,Clear,290,2014-05-03 13:53:00
9:53 AM,61.0,39.0,44,29.89,10.0,NW,10.4,-,N/A,,Clear,310,2014-05-03 14:53:00
10:53 AM,64.0,37.9,38,29.89,10.0,West,8.1,-,N/A,,Clear,280,2014-05-03 15:53:00
11:53 AM,66.0,37.9,36,29.89,10.0,WNW,15.0,25.3,N/A,,Clear,290,2014-05-03 16:53:00
12:53 PM,68.0,34.0,28,29.89,10.0,WNW,15.0,23.0,N/A,,Clear,290,2014-05-03 17:53:00
1:53 PM,70.0,39.0,32,29.88,10.0,West,11.5,-,N/A,,Clear,270,2014-05-03 18:53:00
2:53 PM,71.1,36.0,28,29.87,10.0,WNW,12.7,21.9,N/A,,Clear,300,2014-05-03 19:53:00
3:53 PM,73.0,36.0,26,29.86,10.0,WNW,15.0,21.9,N/A,,Clear,290,2014-05-03 20:53:00
4:53 PM,72.0,34.0,25,29.87,10.0,WNW,15.0,21.9,N/A,,Clear,290,2014-05-03 21:53:00
5:53 PM,70.0,35.1,28,29.87,10.0,WNW,10.4,-,N/A,,Clear,290,2014-05-03 22:53:00
6:53 PM,68.0,37.0,32,29.88,10.0,WNW,6.9,-,0.00,Rain,Light Rain,300,2014-05-03 23:53:00
7:53 PM,66.0,39.9,38,29.89,10.0,WSW,5.8,-,0.00,,Mostly Cloudy,250,2014-05-04 00:53:00
8:53 PM,62.1,41.0,46,29.91,10.0,North,9.2,-,N/A,,Mostly Cloudy,350,2014-05-04 01:53:00
9:53 PM,60.1,42.1,51,29.93,10.0,NW,5.8,-,N/A,,Clear,320,2014-05-04 02:53:00
10:53 PM,59.0,42.1,53,29.94,10.0,NNW,6.9,-,N/A,,Clear,330,2014-05-04 03:53:00
11:53 PM,57.0,44.1,62,29.94,10.0,NNW,6.9,-,N/A,,Clear,330,2014-05-04 04:53:00